Preview of NWS' New Version of Forecast
This preview is not operational and should not be used for support decisions.

Regional Weather Roundup (RWR)

Issued by National Weather Service (NWS)

                            
000
ASUS43 KBIS 200302
RWRND 

NORTH DAKOTA REGIONAL WEATHER ROUNDUP
NATIONAL WEATHER SERVICE BISMARCK ND
1000 PM CDT MON AUG 19 2019

NOTE: "FAIR" INDICATES FEW OR NO CLOUDS BELOW 12,000 FEET WITH NO
SIGNIFICANT WEATHER AND/OR OBSTRUCTIONS TO VISIBILITY.


NDZ001>003-009>011-017-200400-
NORTHWEST NORTH DAKOTA
  
CITY           SKY/WX    TMP DP  RH WIND       PRES   REMARKS
WILLISTON      CLEAR     73  53  49 NW10      29.82R                  
MINOT          CLEAR     77  56  48 S8        29.78R                  
MINOT AFB      CLEAR     73  54  50 S5        29.76R                  
$$
 
NDZ018>021-031>035-040>046-200400-
SOUTHWEST NORTH DAKOTA
  
CITY           SKY/WX    TMP DP  RH WIND       PRES   REMARKS
BISMARCK       CLOUDY    75  68  78 SE12      29.82S                  
DICKINSON      CLEAR     69  61  75 NW9       29.86R                  
GARRISON         N/A     73  63  70 S6        29.81R                  
HETTINGER ARPT CLEAR     73  66  78 E6        29.90R                  
$$
 
NDZ004>008-012>016-024-026-027-054-200400-
NORTHEAST NORTH DAKOTA
  
CITY           SKY/WX    TMP DP  RH WIND       PRES   REMARKS
GRAND FORKS    CLEAR     69  62  78 S5        29.83R                  
GRND FRKS AFB  MOCLDY    70  65  82 S6        29.84R                  
DEVILS LAKE    CLEAR     71  62  73 S8        29.84R                  
$$
 
NDZ022-023-025-028>030-036>039-047>053-200400-
SOUTHEAST NORTH DAKOTA
  
CITY           SKY/WX    TMP DP  RH WIND       PRES   REMARKS
FARGO          CLEAR     77  69  76 S9        29.86R                  
JAMESTOWN      CLEAR     72  68  87 SE7       29.86R                  
$$